Location: Poughquag
(41.6090°N, 73.6820°W)
Time: 03:24:27
(UTC-05:00)

Vanguard 3 - All Passes

Search period start: 05 December 2023 00:00
Search period end: 15 December 2023 00:00
Orbit: 507 x 3241 km, 33.3° (Epoch: 04 December)

Date Brightness Start Highest point End Pass type
(mag) Time Alt. Az. Time Alt. Az. Time Alt. Az.
05 Dec - 02:06:40 10° WSW 02:11:11 22° SSW 02:14:34 10° SSE night (unlit)
05 Dec - 18:09:35 10° S 18:17:25 15° SSE 18:23:54 10° ESE visible
05 Dec - 20:18:23 10° SW 20:30:53 33° SSE 20:38:55 10° ESE visible
05 Dec - 22:32:38 10° WSW 22:43:33 46° S 22:49:51 10° ESE visible
06 Dec - 00:47:48 10° W 00:54:59 36° SSW 00:59:31 10° SE night (unlit)
06 Dec - 03:04:23 10° SW 03:05:03 10° SW 03:05:42 10° SSW night (unlit)
06 Dec - 19:00:21 10° SSW 19:12:49 26° SSE 19:21:40 10° ESE visible
06 Dec - 21:13:09 10° SW 21:26:06 43° SSE 21:33:47 10° E visible
06 Dec - 23:28:32 10° WSW 23:38:20 46° S 23:44:02 10° ESE night (unlit)
07 Dec - 01:43:53 10° WSW 01:49:07 23° SSW 01:52:50 10° SSE night (unlit)
07 Dec - 17:43:58 10° S 17:54:28 19° SE 18:02:56 10° ESE visible
07 Dec - 19:53:59 10° SW 20:08:11 37° SSE 20:17:15 10° E visible
07 Dec - 22:08:51 10° WSW 22:21:11 50° S 22:28:14 10° ESE visible
08 Dec - 00:24:37 10° W 00:32:51 38° SSW 00:37:53 10° SE night (unlit)
08 Dec - 02:41:49 10° SW 02:42:52 11° SW 02:43:53 10° SSW night (unlit)
08 Dec - 16:32:23 10° SSE 16:36:03 11° SE 16:39:31 10° SE daylight
08 Dec - 18:35:39 10° SSW 18:49:52 30° SSE 18:59:59 10° E visible
08 Dec - 20:49:03 10° SW 21:03:31 48° S 21:12:04 10° E visible
08 Dec - 23:04:58 10° WSW 23:16:04 49° S 23:22:23 10° ESE visible
09 Dec - 01:20:56 10° W 01:26:57 24° SSW 01:31:06 10° SSE night (unlit)
09 Dec - 17:18:50 10° S 17:31:21 22° SE 17:41:26 10° ESE visible
09 Dec - 19:29:38 10° SW 19:45:19 42° SSE 19:55:26 10° E visible
09 Dec - 21:44:58 10° WSW 21:58:42 54° S 22:06:31 10° ESE visible
10 Dec - 00:01:15 10° W 00:10:37 39° SSW 00:16:13 10° SE night (unlit)
10 Dec - 02:19:00 10° WSW 02:20:37 11° SW 02:22:06 10° SSW night (unlit)
10 Dec - 16:05:09 10° SSE 16:12:50 14° SE 16:19:52 10° ESE daylight
10 Dec - 18:11:06 10° SSW 18:26:46 34° SSE 18:38:06 10° E visible
10 Dec - 20:24:55 10° WSW 20:40:45 52° S 20:50:15 10° E visible
10 Dec - 22:41:16 10° W 22:53:39 52° S 23:00:41 10° ESE visible
11 Dec - 00:57:48 10° W 01:04:42 25° SSW 01:09:20 10° SSE night (unlit)
11 Dec - 16:54:02 10° SSW 17:08:03 25° SE 17:19:34 10° E visible
11 Dec - 19:05:21 10° SW 19:22:17 46° SSE 19:33:29 10° E visible
11 Dec - 21:20:59 10° WSW 21:36:03 57° S 21:44:43 10° ESE visible
11 Dec - 23:37:44 10° W 23:48:15 41° SSW 23:54:28 10° SE visible
12 Dec - 01:56:01 10° WSW 01:58:18 12° SW 02:00:17 10° SSW night (unlit)
12 Dec - 15:39:32 10° SSE 15:49:28 16° SE 15:58:38 10° ESE daylight
12 Dec - 17:46:44 10° SSW 18:03:29 38° SSE 18:16:00 10° E visible
12 Dec - 20:00:47 10° WSW 20:17:49 56° S 20:28:18 10° E visible
12 Dec - 22:17:26 10° W 22:31:07 53° SSW 22:38:54 10° ESE visible
13 Dec - 00:34:28 10° W 00:42:20 26° SW 00:47:31 10° SSE night (unlit)
13 Dec - 16:29:32 10° SSW 16:44:37 29° SE 16:57:25 10° E visible
13 Dec - 18:41:09 10° SW 18:59:05 50° SSE 19:11:22 10° E visible
13 Dec - 20:56:58 10° WSW 21:13:15 59° S 21:22:50 10° ESE visible
13 Dec - 23:14:03 10° W 23:25:46 42° SSW 23:32:39 10° SE visible
14 Dec - 01:32:54 10° WSW 01:35:52 12° SW 01:38:24 10° SSW night (unlit)
14 Dec - 15:14:35 10° S 15:25:58 19° SE 15:36:44 10° E daylight
14 Dec - 17:22:32 10° SW 17:40:02 41° SSE 17:53:44 10° E visible
14 Dec - 19:36:42 10° WSW 19:54:43 59° S 20:06:15 10° E visible
14 Dec - 21:53:31 10° W 22:08:26 55° SSW 22:17:02 10° ESE visible
